[[{"header":{"parameterUnit":"m.s-1","parameterCategory":1,"la1":30.2991,"la2":30.254,"lo1":-89.0895,"lo2":-89.0444,"dy":0.0017,"dx":0.0017,"nx":28,"ny":28,"refTime":"2025-12-22T09:00:00:Z","depth":0,"parameterNumber":2,"parameterNumberName":"U-component_of_WINDS"},"data":[0,0,0,0,0,0,0,0,0,0,0,0,0,0,0,0,0,0,0,0,0,0,0,0,0,0,0,0,0,0,0,0,0,0,0,0,0,0,0,0,0,0,0,0,0,0,0,0,0,0,0,0,0,0,0,0,0,0,-4.2831,-4.2832,0,-4.2886,-4.2886,-4.2887,-4.2861,-4.286,-4.2858,-4.2857,-4.2912,-4.2915,-4.2917,0,0,0,0,0,0,0,0,0,0,0,0,0,-4.2707,-4.2709,-4.2831,-4.2832,-4.2833,-4.2886,-4.2886,-4.2887,-4.2861,-4.286,-4.2858,-4.2856,-4.2911,-4.2914,-4.2918,0,0,0,0,0,0,0,0,0,0,0,0,0,-4.2761,-4.271,-4.2831,-4.2826,-4.2826,-4.2885,-4.2886,-4.2887,-4.2862,-4.286,-4.2858,-4.2856,-4.291,-4.2914,-4.2918,-4.2985,0,0,-4.2931,-4.2932,0,0,0,0,0,0,0,0,-4.2758,-4.2765,-4.2826,-4.2827,-4.2827,-4.2865,-4.2862,-4.292,-4.2862,-4.2848,-4.2857,-4.2855,-4.2898,-4.2903,-4.2917,-4.2987,-4.299,-4.2931,-4.2934,-4.2935,-4.2936,0,0,0,0,0,0,0,-4.2754,-4.2763,-4.2853,-4.2827,-4.2828,-4.2822,-4.2827,-4.2873,-4.2884,-4.2849,-4.2848,-4.2854,-4.2898,-4.2914,-4.2919,-4.2991,-4.2931,-4.2935,-4.2937,-4.2939,-4.3121,-4.3123,0,0,0,0,0,0,-4.275,-4.276,-4.2851,-4.2854,-4.2787,-4.2826,-4.2832,-4.2855,-4.2883,-4.2886,-4.2856,-4.2853,-4.2908,-4.2914,-4.292,-4.3001,-4.2935,-4.2939,-4.2941,-4.3118,-4.3121,-4.3124,0,0,0,0,0,0,-4.2748,-4.2759,-4.2849,-4.2807,-4.2818,-4.283,-4.2856,-4.2857,-4.2873,-4.2889,-4.289,-4.287,-4.2906,-4.2915,-4.297,-4.3003,-4.2941,-4.2945,-4.3115,-4.3119,-4.3122,-4.3163,0,0,0,0,0,0,-4.2744,-4.2758,-4.2783,-4.2808,-4.282,-4.2897,-4.2858,-4.2859,-4.288,-4.2876,-4.2902,-4.2905,-4.2905,-4.2964,-4.2974,-4.3007,-4.2948,-4.3112,-4.3117,-4.3121,-4.3159,-4.3167,-4.3175,0,0,0,0,0,-4.274,-4.2791,-4.2784,-4.2795,-4.2851,-4.2898,-4.2906,-4.2905,-4.2883,-4.2908,-4.2919,-4.2904,-4.2998,-4.2969,-4.2981,-4.3016,-4.311,-4.3116,-4.3121,-4.3155,-4.3166,-4.3175,0,0,0,0,0,0,-4.2769,-4.2794,-4.2787,-4.2848,-4.2871,-4.2894,-4.2926,-4.2916,-4.2946,-4.2942,-4.294,-4.2947,-4.3004,-4.3016,-4.2983,-4.3083,-4.3051,-4.3059,-4.3073,-4.3083,-4.3091,-4.3086,-4.2951,0,0,0,0,0,-4.2783,-4.2819,-4.2839,-4.2891,-4.2903,-4.2913,-4.2933,-4.2932,-4.2956,-4.2965,-4.298,-4.3004,-4.3039,-4.3062,-4.3095,-4.3161,-4.3167,-4.3192,-4.32,-4.3206,-4.3212,-4.325,-4.3261,-4.3141,-4.3141,-4.3141,0,0,-4.2811,-4.2829,-4.2852,-4.2897,-4.2915,-4.2953,-4.2921,-4.2962,-4.299,-4.2971,-4.3024,-4.3036,-4.3063,-4.3125,-4.3152,-4.3136,-4.3247,-4.3213,-4.3218,-4.3221,-4.3256,-4.3267,-4.3278,-4.3145,-4.3144,-4.3143,0,0,-4.2881,-4.2899,-4.2944,-4.2964,-4.2992,-4.2999,-4.301,-4.3035,-4.3043,-4.3096,-4.3084,-4.3118,-4.3178,-4.3198,-4.3216,-4.3299,-4.3287,-4.331,-4.3352,-4.3388,-4.3397,-4.3406,-4.3435,-4.3446,-4.3317,-4.3317,-4.3317,0,-4.2911,-4.2968,-4.2969,-4.3011,-4.3032,-4.3019,-4.3066,-4.3085,-4.3123,-4.3138,-4.312,-4.3197,-4.3214,-4.328,-4.3301,-4.3316,-4.3329,-4.3306,-4.3396,-4.3404,-4.3412,-4.344,-4.3451,-4.3319,-4.3319,-4.3319,-4.3319,0,-4.3005,-4.3044,-4.3078,-4.3116,-4.3141,-4.3185,-4.3194,-4.3219,-4.3217,-4.3226,-4.3281,-4.3303,-4.334,-4.3357,-4.3354,-4.3423,-4.3413,-4.3396,-4.3363,-4.3426,-4.3453,-4.3463,-4.3323,-4.3322,-4.3321,-4.3321,0,0,-4.309,-4.3131,-4.3143,-4.3161,-4.3194,-4.3224,-4.327,-4.3308,-4.333,-4.3358,-4.3395,-4.3449,-4.3434,-4.3455,-4.3455,-4.3487,-4.3552,-4.3467,-4.3467,-4.3481,-4.3631,-4.3642,-4.3655,-4.3545,-4.3547,-4.3549,-4.3628,0,-4.3162,-4.3241,-4.3245,-4.3316,-4.3354,-4.3344,-4.3383,-4.3408,-4.3419,-4.3452,-4.3464,-4.3502,-4.348,-4.3493,-4.3524,-4.3537,-4.3582,-4.3532,-4.358,-4.3582,-4.3572,-4.3668,-4.368,-4.3754,-4.3639,-4.3641,-4.3642,0,-4.3255,-4.3287,-4.3363,-4.3393,-4.3408,-4.3443,-4.348,-4.3512,-4.3541,-4.3547,-4.3572,-4.3569,-4.3616,-4.3584,-4.3649,-4.3615,-4.3636,-4.3646,-4.3649,-4.3652,-4.3614,-4.3673,-4.3777,-4.3788,-4.3658,-4.3657,-4.3656,0,-4.331,-4.3372,-4.3426,-4.3442,-4.3477,-4.3503,-4.3519,-4.3546,-4.3569,-4.3602,-4.3617,-4.3655,-4.3675,-4.3705,-4.3712,-4.3688,-4.3778,-4.3746,-4.3784,-4.3784,-4.3801,-4.3799,-4.3909,-4.3817,-4.3817,-4.3817,-4.3817,0,-4.3388,-4.3435,-4.3451,-4.3484,-4.3536,-4.3542,-4.3594,-4.3609,-4.3633,-4.3669,-4.3664,-4.3698,-4.3706,-4.3742,-4.3749,-4.3803,-4.3812,-4.3818,-4.3819,-4.3818,-4.3817,-4.3829,-4.3824,-4.382,-4.3819,-4.3819,-4.3818,0,-4.3456,-4.3469,-4.3527,-4.3558,-4.3567,-4.3604,-4.363,-4.3662,-4.3674,-4.372,-4.3731,-4.3749,-4.3792,-4.3803,-4.3853,-4.3858,-4.3921,-4.3918,-4.3911,-4.3911,-4.3948,-4.3944,-4.4068,-4.4084,-4.3983,-4.3984,-4.3985,0,-4.3504,-4.354,-4.3576,-4.36,-4.3618,-4.3657,-4.3681,-4.369,-4.3716,-4.3753,-4.3781,-4.3824,-4.3857,-4.3926,-4.3944,-4.3983,-4.398,-4.4021,-4.3986,-4.3984,-4.398,-4.3977,-4.3981,-4.4027,-4.4028,-4.4029,-4.4029,0,-4.3589,-4.3594,-4.363,-4.367,-4.37,-4.3731,-4.376,-4.3781,-4.3793,-4.3823,-4.3867,-4.3894,-4.3947,-4.3989,-4.403,-4.4047,-4.4041,-4.4041,-4.4052,-4.405,-4.4044,-4.4047,-4.3928,-4.4037,-4.4037,-4.4036,-4.4036,-4.4035,-4.3648,-4.368,-4.371,-4.3751,-4.3775,-4.3804,-4.3836,-4.3853,-4.389,-4.3934,-4.3938,-4.3986,-4.4016,-4.407,-4.409,-4.4129,-4.4116,-4.4132,-4.4135,-4.4139,-4.4142,-4.404,-4.4136,-4.4136,-4.4136,-4.4136,-4.4135,0,-4.3731,-4.3751,-4.3789,-4.3832,-4.3865,-4.3858,-4.3892,-4.392,-4.3962,-4.3992,-4.4026,-4.4078,-4.412,-4.4143,-4.4185,-4.4211,-4.4209,-4.4222,-4.4219,-4.4223,-4.4151,-4.4137,-4.4222,-4.4222,-4.4222,-4.4222,-4.4222,-4.4222,-4.3778,-4.3832,-4.3842,-4.3909,-4.3929,-4.3976,-4.3996,-4.4023,-4.4047,-4.4105,-4.4141,-4.4156,-4.4183,-4.4228,-4.4267,-4.4272,-4.4288,-4.4301,-4.4306,-4.4237,-4.4228,-4.4219,-4.4206,-4.4305,-4.4305,-4.4375,-4.4375,-4.4376]},{"header":{"parameterUnit":"m.s-1","parameterCategory":1,"la1":30.2991,"la2":30.254,"lo1":-89.0895,"lo2":-89.0444,"dy":0.0017,"dx":0.0017,"nx":28,"ny":28,"refTime":"2025-12-22T09:00:00:Z","depth":0,"parameterNumber":3,"parameterNumberName":"V-component_of_WINDS"},"data":[0,0,0,0,0,0,0,0,0,0,0,0,0,0,0,0,0,0,0,0,0,0,0,0,0,0,0,0,0,0,0,0,0,0,0,0,0,0,0,0,0,0,0,0,0,0,0,0,0,0,0,0,0,0,0,0,0,0,1.1389,1.1389,0,1.1392,1.1392,1.1392,1.1428,1.1429,1.143,1.1431,1.143,1.1429,1.1428,0,0,0,0,0,0,0,0,0,0,0,0,0,1.1412,1.1411,1.1389,1.1389,1.1389,1.1392,1.1392,1.1392,1.1428,1.1429,1.143,1.1431,1.143,1.1429,1.1428,0,0,0,0,0,0,0,0,0,0,0,0,0,1.1407,1.1411,1.1389,1.1407,1.1409,1.1392,1.1392,1.1392,1.1428,1.1429,1.143,1.1431,1.143,1.1429,1.1428,1.1393,0,0,1.1424,1.1423,0,0,0,0,0,0,0,0,1.1407,1.1406,1.1404,1.1406,1.1408,1.1411,1.14,1.1392,1.1427,1.142,1.1431,1.1432,1.1422,1.1422,1.1419,1.1393,1.1393,1.1424,1.1423,1.1422,1.1422,0,0,0,0,0,0,0,1.1407,1.1406,1.139,1.1404,1.1406,1.1415,1.1416,1.1399,1.1413,1.1421,1.1424,1.1424,1.1423,1.142,1.1419,1.1393,1.1424,1.1423,1.1422,1.1421,1.1341,1.1339,0,0,0,0,0,0,1.1406,1.1406,1.139,1.139,1.1411,1.1413,1.1414,1.1409,1.1414,1.1416,1.1423,1.1425,1.1422,1.1421,1.1419,1.1381,1.1422,1.1421,1.142,1.1342,1.134,1.1339,0,0,0,0,0,0,1.1406,1.1404,1.139,1.1399,1.1398,1.1411,1.1405,1.1408,1.1405,1.1415,1.1417,1.1417,1.1423,1.1421,1.14,1.1381,1.1421,1.1419,1.1344,1.1341,1.134,1.1301,0,0,0,0,0,0,1.1406,1.1404,1.139,1.1398,1.1397,1.1371,1.1404,1.1407,1.1403,1.1407,1.141,1.1412,1.1424,1.1402,1.1399,1.138,1.1418,1.1345,1.1343,1.134,1.1304,1.1298,1.1293,0,0,0,0,0,1.1407,1.1378,1.139,1.1387,1.1381,1.1369,1.1369,1.1384,1.1401,1.1388,1.1396,1.1412,1.1384,1.1399,1.1396,1.1377,1.1346,1.1343,1.134,1.1307,1.1299,1.1293,0,0,0,0,0,0,1.1365,1.1379,1.1392,1.1365,1.1366,1.1375,1.1359,1.1375,1.137,1.1373,1.1391,1.1392,1.1368,1.137,1.1387,1.1345,1.1368,1.1364,1.1344,1.1337,1.1331,1.1331,1.1417,0,0,0,0,0,1.1353,1.1343,1.1356,1.133,1.1331,1.1345,1.134,1.1352,1.1354,1.1354,1.1359,1.1358,1.135,1.1343,1.1336,1.1305,1.1307,1.1291,1.1285,1.128,1.1276,1.1263,1.1256,1.1329,1.1329,1.1329,0,0,1.1327,1.1334,1.1326,1.1322,1.1325,1.1314,1.1345,1.1331,1.1324,1.1351,1.1332,1.1336,1.1337,1.1312,1.1301,1.1313,1.1257,1.1276,1.1272,1.1271,1.1259,1.1252,1.1246,1.1327,1.1327,1.1327,0,0,1.1275,1.1279,1.1259,1.1262,1.1266,1.1276,1.1272,1.128,1.1284,1.1266,1.1287,1.1278,1.1262,1.1263,1.1261,1.1213,1.1229,1.121,1.118,1.1167,1.1161,1.1156,1.1141,1.1135,1.1207,1.1207,1.1206,0,1.1242,1.1228,1.1247,1.1234,1.1232,1.1259,1.124,1.1241,1.1241,1.124,1.1254,1.1237,1.1239,1.1215,1.1204,1.1201,1.1197,1.1209,1.1161,1.1156,1.1152,1.1137,1.1131,1.1204,1.1205,1.1205,1.1205,0,1.1188,1.1178,1.1162,1.1165,1.1161,1.1144,1.1162,1.1156,1.1169,1.1178,1.116,1.1165,1.116,1.1155,1.1166,1.1134,1.1142,1.1158,1.1182,1.1142,1.1129,1.1123,1.1201,1.1202,1.1203,1.1203,0,0,1.1107,1.1124,1.1117,1.112,1.1128,1.1121,1.1106,1.1104,1.1099,1.1099,1.1088,1.1076,1.1092,1.109,1.1102,1.109,1.1055,1.1109,1.1109,1.1099,1.1021,1.1009,1.1002,1.1066,1.1065,1.1064,1.1022,0,1.1058,1.1035,1.1054,1.1028,1.102,1.1047,1.1035,1.1039,1.1047,1.1041,1.105,1.1042,1.1064,1.1063,1.1053,1.1061,1.1039,1.1065,1.1055,1.1055,1.1055,1.0995,1.0982,1.0941,1.1016,1.1015,1.1015,0,1.0997,1.0998,1.0972,1.0985,1.0982,1.0971,1.0971,1.0965,1.0971,1.0978,1.0978,1.0994,1.0981,1.1006,1.0989,1.1005,1.1003,1.1007,1.1006,1.1006,1.1032,1.0994,1.0929,1.0923,1.1006,1.1007,1.1008,0,1.0943,1.0937,1.0921,1.0922,1.0937,1.0929,1.0934,1.0941,1.0939,1.0939,1.0939,1.0937,1.0935,1.0934,1.0949,1.0965,1.0931,1.0956,1.0937,1.0936,1.0928,1.0928,1.0862,1.0925,1.0925,1.0926,1.0926,0,1.0886,1.0869,1.0897,1.0887,1.087,1.0892,1.0874,1.0882,1.0889,1.0881,1.0904,1.0896,1.0918,1.0912,1.0924,1.0909,1.0908,1.0914,1.0917,1.0912,1.0912,1.0911,1.0914,1.0924,1.0924,1.0925,1.0925,0,1.0822,1.084,1.0825,1.0841,1.0845,1.0831,1.0845,1.0837,1.0848,1.0839,1.0838,1.0855,1.0851,1.0867,1.0863,1.0872,1.0851,1.0858,1.0849,1.0852,1.0832,1.0834,1.0763,1.0756,1.0823,1.0823,1.0822,0,1.0784,1.0773,1.0789,1.0787,1.0792,1.0787,1.0786,1.0808,1.0806,1.0814,1.0805,1.0803,1.0802,1.0793,1.0805,1.0804,1.0812,1.0787,1.0811,1.0808,1.0813,1.0813,1.0813,1.0782,1.0781,1.078,1.078,0,1.0717,1.0728,1.0727,1.073,1.0729,1.0731,1.0736,1.0732,1.0756,1.0753,1.075,1.0749,1.0749,1.0746,1.0748,1.0753,1.077,1.0773,1.0768,1.0763,1.0759,1.0762,1.0836,1.0774,1.0774,1.0775,1.0775,1.0775,1.0666,1.0658,1.0669,1.0668,1.0674,1.0678,1.0673,1.0685,1.0683,1.0685,1.0698,1.0693,1.0701,1.0706,1.0709,1.0706,1.0717,1.071,1.0709,1.0707,1.0704,1.0759,1.0706,1.0706,1.0706,1.0706,1.0706,0,1.0601,1.061,1.0609,1.0616,1.0616,1.0635,1.0641,1.0639,1.0635,1.0642,1.0642,1.0639,1.0638,1.0651,1.0652,1.0646,1.0655,1.0646,1.0647,1.0648,1.0693,1.0697,1.064,1.064,1.064,1.064,1.064,1.064,1.0567,1.0555,1.0568,1.056,1.0569,1.0566,1.0568,1.0573,1.0579,1.0576,1.0576,1.0585,1.0595,1.0597,1.0597,1.0601,1.0601,1.0589,1.0596,1.0638,1.0644,1.065,1.0655,1.0589,1.0589,1.0551,1.0551,1.0551]}]]